Weather History for Filton, United Kingdom

Change the Weather History Date:

Friday, September 28, 2012

  Actual Average Record
Temperature  
Mean Temperature 54 °F -  
Max Temperature 59 °F - - ()
Min Temperature 48 °F - - ()
Degree Days  
Heating Degree Days 12    
Growing Degree Days 4 (Base 50)    
Moisture  
Dew Point 49 °F    
Average Humidity 78    
Maximum Humidity 94    
Minimum Humidity 63    
Precipitation  
Precipitation 0.04 in - - ()
Sea Level Pressure  
Sea Level Pressure 29.89 in    
Wind  
Wind Speed 11 mph ()    
Max Wind Speed 18 mph    
Max Gust Speed -    
Visibility 6.9 miles    
Events Rain    
T = Trace of Precipitation, MM = Missing Value Source: Averaged Metar Reports

Daily Weather History Graph

Daily Weather History Graph

Search for Another Location

Airport:

Trip Planner

Search our weather history database for the weather conditions in past years. The results will help you decide how hot, cold, wet, or windy it might be!

Date:

Astronomy

Sep. 28, 2012 Rise Set
Actual Time 7:06 AM BST 6:54 PM BST
Civil Twilight 6:33 AM BST 7:27 PM BST
Nautical Twilight 5:54 AM BST 8:06 PM BST
Astronomical Twilight 5:14 AM BST 8:46 PM BST
Moon 5:52 PM BST (9/28) 5:15 AM BST (9/28)
Length of Visible Light 12h 53m
Length of Day
11h 47m
Waxing Gibbous, 97% of the Moon is Illuminated
Sep 28
Waxing Gibbous
Sep 30
Full
Oct 8
Last Quarter
Oct 15
New
Oct 22
First Quarter

Hourly Weather History & Observations

Time (BST) Temp. Dew Point Humidity Pressure Visibility Wind Dir Wind Speed Gust Speed Precip Events Conditions
12:50 AM 50 °F 46 °F 80% 29.91 in 22 mi SSW 8.1 mph - -   Partly Cloudy
3:50 AM 51 °F 47 °F 80% 29.89 in 19 mi SSW 9.2 mph - -   Scattered Clouds
5:50 AM 51.8 °F 48.2 °F 88% 29.86 in 6.2 mi SSW 9.2 mph - N/A   Scattered Clouds
6:20 AM 51.8 °F 48.2 °F 88% 29.86 in 6.2 mi SSW 10.4 mph - N/A   Scattered Clouds
6:50 AM 52 °F 49 °F 85% 29.86 in 22 mi SSW 10.4 mph - -  
6:50 AM 51.8 °F 48.2 °F 88% 29.86 in 6.2 mi SSW 10.4 mph - N/A   Partly Cloudy
7:20 AM 53.6 °F 50.0 °F 88% 29.86 in 6.2 mi SSW 10.4 mph - N/A   Partly Cloudy
7:50 AM 53.6 °F 50.0 °F 88% 29.86 in 6.2 mi SSW 10.4 mph - N/A   Partly Cloudy
8:20 AM 53.6 °F 50.0 °F 88% 29.86 in 6.2 mi South 10.4 mph - N/A   Scattered Clouds
8:50 AM 55.4 °F 50.0 °F 82% 29.86 in 6.2 mi SSW 11.5 mph - N/A   Mostly Cloudy
9:20 AM 53.6 °F 51.8 °F 94% 29.86 in 1.9 mi SW 16.1 mph - N/A   Drizzle
9:50 AM 54 °F 52 °F 89% 29.89 in 8 mi WSW 11.5 mph - - Rain Rain
9:50 AM 53.6 °F 51.8 °F 94% 29.89 in 6.2 mi SW 12.7 mph - N/A   Light Drizzle
10:20 AM 55.4 °F 51.8 °F 88% 29.89 in 6.2 mi SW 10.4 mph - N/A   Light Drizzle
10:50 AM 55.4 °F 51.8 °F 88% 29.89 in 6.2 mi SW 13.8 mph - N/A   Scattered Clouds
11:20 AM 57.2 °F 51.8 °F 82% 29.89 in 6.2 mi SW 13.8 mph - N/A   Mostly Cloudy
11:50 AM 59.0 °F 50.0 °F 72% 29.89 in 6.2 mi WSW 12.7 mph - N/A   Scattered Clouds
12:20 PM 57.2 °F 50.0 °F 77% 29.89 in 6.2 mi West 13.8 mph - N/A   Mostly Cloudy
12:50 PM 58 °F 49 °F 65% 29.89 in 25 mi WSW 18.4 mph - -   Mostly Cloudy
12:50 PM 59.0 °F 50.0 °F 72% 29.89 in 6.2 mi WSW 18.4 mph - N/A   Mostly Cloudy
1:20 PM 59.0 °F 50.0 °F 72% 29.89 in 6.2 mi WSW 17.3 mph - N/A   Mostly Cloudy
1:50 PM 59.0 °F 50.0 °F 72% 29.89 in 6.2 mi WSW 15.0 mph - N/A   Mostly Cloudy
2:20 PM 59.0 °F 50.0 °F 72% 29.89 in 6.2 mi West 17.3 mph - N/A   Mostly Cloudy
2:50 PM 59.0 °F 48.2 °F 67% 29.92 in 6.2 mi West 16.1 mph - N/A   Mostly Cloudy
3:20 PM 59.0 °F 50.0 °F 72% 29.89 in 6.2 mi WSW 15.0 mph - N/A   Mostly Cloudy
3:50 PM 58 °F 49 °F 65% 29.90 in 25 mi WSW 15.0 mph - -   Overcast
3:50 PM 59.0 °F 50.0 °F 72% 29.89 in 6.2 mi WSW 15.0 mph - N/A   Partly Cloudy
4:20 PM 57.2 °F 48.2 °F 72% 29.89 in 6.2 mi WSW 16.1 mph - N/A   Partly Cloudy
5:20 PM 59.0 °F 46.4 °F 63% 29.89 in 6.2 mi West 15.0 mph - N/A   Partly Cloudy
5:50 PM 57.2 °F 46.4 °F 67% 29.89 in 6.2 mi West 13.8 mph - N/A   Partly Cloudy
6:50 PM 56 °F 48 °F 66% 29.91 in 22 mi West 11.5 mph - -   Mostly Cloudy
9:50 PM 55 °F 49 °F 73% 29.95 in 16 mi WSW 10.4 mph - -   Overcast